www.pogodaiklimat.ru

Погода и климат >> Архив погоды >> Южная Африка >> Vredendal


ПОГОДА в Vredendal

  • Прогноз погоды в Vredendal
  • Монитор погоды в Vredendal
  • Климат города

АРХИВ ПОГОДЫ в Vredendal

Время (UTC), дата Ветер
(напр.,м/с)
 
Видим.   Явления Облачность Т
(С)
Тd
(С)
f
(%)
Тe
(С)
Тes
(С)
Комфортность P
(гПа)
Po
(гПа)
Тmin
(С)
Tmax
(С)
R
(мм)
R24
(мм)
S
(см)
15 14.10 З 4 н/о н/о +21.0 +12.5 58 +24 +24 комфорт 1016.6 1011.7 +20.8 +24.9
18 14.10 З 2 н/о н/о +16.4 +12.9 80 +17 +17 1018.9 1013.9 +16.4 +24.9
21 14.10 СЗ 1 н/о н/о +13.7 +12.1 90 +14 +14 1020.0 1015.0 +13.7 +24.9
00 15.10 СЗ 2 н/о н/о +14.5 +12.3 87 +14 +14 1020.0 1015.0 +13.4 +24.9
03 15.10 СЗ 1 н/о н/о +14.8 +12.1 84 +15 +15 1020.7 1015.7 +13.4 +24.9
06 15.10 СЗ 1 20 км 10/10 600 м
[St]
+17.0 +12.7 76 +18 +18 1022.4 1017.4 +13.4
09 15.10 СЗ 3 н/о н/о +20.5 +12.8 61 +23 +23 комфорт 1022.0 1017.1 +13.4 +21.0
12 15.10 З 3 30 км 8/8 600 м
[Cu med, cong]
+24.1 +11.9 46 +26 +29 жарко 1019.9 1015.0 +13.4 +24.1
15 15.10 ЮЗ 6 н/о н/о +20.9 +11.3 54 +23 +23 комфорт 1019.6 1014.7 +20.7 +24.8
18 15.10 ЮЗ 4 30 км 3/0
[Cs]
+16.6 +12.0 74 +16 +16 1020.8 1015.8 +16.6 +24.8
21 15.10 Ю 2 н/о н/о +16.2 +11.8 75 +17 +17 1021.7 1016.7 +16.2 +24.8
00 16.10 Ю 1 н/о н/о +14.8 +10.8 77 +15 +15 1020.8 1015.8 +14.8 +24.8
03 16.10 В 1 н/о н/о +12.1 +9.8 86 +12 +12 1020.7 1015.6 +11.6 +24.8
06 16.10 С 1 30 км 4/0
[Ci]
+15.6 +11.2 75 +16 +19 1021.6 1016.6 +10.8
09 16.10 В 1 н/о н/о +23.1 +10.7 46 +25 +25 комфорт 1021.0 1016.1 +10.8 +23.1
12 16.10 ЮЗ 3 30 км 5/0
[Cs]
+25.4 +9.0 35 +26 +39 жарко 1019.1 1014.3 +10.8 +26.4
15 16.10 ЮЗ 4 н/о н/о +20.0 +9.1 49 +21 +21 комфорт 1019.8 1014.9 +20.0 +26.4
18 16.10 Ю 5 30 км 5/0 2000 м
[]
+17.2 +9.9 62 +17 +17 1020.8 1015.8 +17.0 +26.4
21 16.10 ЮЗ 2 н/о н/о +15.7 +8.7 63 +16 +16 1021.4 1016.4 +15.7 +26.4
00 17.10 С 1 н/о н/о +12.5 +8.9 79 +13 +13 1020.2 1015.1 +12.5 +26.4
03 17.10 штиль 0 н/о н/о +9.4 +7.5 88 +9 +9 1020.7 1015.6 +9.3 +26.4
06 17.10 штиль 0 30 км ясно +15.0 +10.4 74 +15 +19 1021.5 1016.5 +8.7
09 17.10 ЮВ 2 н/о н/о +22.8 +10.0 44 +25 +25 комфорт 1019.3 1014.4 +8.7 +22.9
12 17.10 ЮЗ 4 30 км 1/0
[Ci fib]
+28.0 +9.5 31 +28 +41 жарко 1016.5 1011.7 +8.7 +29.0
15 17.10 ЮЗ 6 н/о н/о +26.3 +9.4 34 +27 +27 жарко 1014.7 1009.9 +26.3 +29.0
18 17.10 СВ 2 н/о н/о +20.6 +9.6 49 +23 +23 комфорт 1015.6 1010.7 +20.6 +29.0
21 17.10 С 1 н/о н/о +17.0 +10.2 64 +18 +18 1016.1 1011.1 +17.0 +29.0
00 18.10 штиль 0 н/о н/о +14.3 +9.1 71 +14 +14 1015.6 1010.6 +14.3 +29.0
03 18.10 штиль 0 н/о н/о +11.1 +8.6 85 +10 +10 1015.3 1010.2 +11.1 +29.0
06 18.10 ЮВ 2 30 км 5/0
[Cs]
+16.4 +10.7 69 +17 +20 1016.0 1011.0 +10.3
09 18.10 В 1 н/о н/о +26.7 +9.3 33 +27 +27 жарко 1014.3 1009.5 +10.3 +26.8
12 18.10 ЮЗ 5 30 км 1/0
[Ci sp]
+29.0 +8.9 28 +29 +37 жарко 1012.6 1007.9 +10.3 +30.6
15 18.10 ЮЗ 5 н/о н/о +25.5 +7.8 32 +26 +26 жарко 1012.8 1008.0 +25.5 +30.6
18 18.10 Ю 3 30 км 4/0
[Ci sp]
+18.0 +11.1 64 +18 +18 1015.5 1010.6 +18.0 +30.6
21 18.10 ЮЗ 3 н/о н/о +16.2 +13.5 84 +16 +16 1016.8 1011.8 +16.2 +30.6
00 19.10 Ю 2 н/о н/о +15.2 +12.9 86 +15 +15 1017.1 1012.1 +15.2 +30.6
03 19.10 З 2 н/о н/о +14.2 +12.2 88 +14 +14 1018.0 1013.0 +14.0 +30.6
06 19.10 Ю 6 30 км 4/3 600 м
[Cu med, cong Ci fib]
+19.6 +13.3 67 +21 +22 комфорт 1019.5 1014.6 +14.0
09 19.10 Ю 4 н/о н/о +25.1 +11.1 41 +26 +26 жарко 1019.7 1014.9 +14.0 +25.2
12 19.10 Ю 5 30 км 3/0
[Ci sp]
+28.3 +8.3 28 +28 +38 жарко 1018.0 1013.2 +14.0 +28.6
15 19.10 ЮЗ 6 н/о н/о +27.8 +6.8 26 +27 +27 жарко 1017.2 1012.4 +27.1 +28.6
18 19.10 Ю 4 30 км 3/0
[Ci sp]
+23.3 +5.9 32 +24 +24 комфорт 1020.0 1015.1 +23.3 +28.7
21 19.10 ЮВ 2 н/о н/о +20.7 +1.7 28 +22 +22 комфорт 1021.6 1016.7 +19.9 +28.7
00 20.10 ЮВ 3 н/о н/о +19.3 +3.2 34 +20 +20 1021.2 1016.3 +19.3 +28.7
03 20.10 В 5 н/о н/о +19.2 +1.8 31 +19 +19 1022.1 1017.1 +18.6 +28.7
06 20.10 ЮВ 5 30 км 1/0
[Ci fib]
+21.8 +3.1 29 +22 +23 комфорт 1023.2 1018.3 +18.6
09 20.10 В 7 н/о н/о +27.0 +1.7 19 +25 +25 комфорт 1023.2 1018.4 +18.6 +27.0
12 20.10 ЮВ 6 30 км ясно +32.8 -1.1 11 +29 +37 жарко 1019.9 1015.2 +18.6 +32.9
15 20.10 ЮВ 7 н/о н/о +33.8 -1.6 10 +30 +30 жарко 1017.3 1012.6 +32.5 +34.3
18 20.10 ЮВ 6 30 км 1/0
[Ci]
+29.6 -3.6 11 +26 +26 жарко 1018.4 1013.6 +29.5 +34.3
21 20.10 ЮВ 6 н/о н/о +27.5 -3.0 13 +25 +25 комфорт 1020.0 1015.2 +27.3 +34.3
00 21.10 ЮВ 6 н/о н/о +24.4 -2.8 16 +23 +23 комфорт 1020.6 1015.7 +23.8 +34.3
03 21.10 ЮВ 5 н/о н/о +21.9 -4.8 16 +21 +21 комфорт 1021.0 1016.1 +21.8 +34.3
06 21.10 В 6 30 км 4/0
[Cs]
+24.5 -4.5 14 +22 +23 комфорт 1021.7 1016.8 +21.7
09 21.10 В 6 н/о н/о +29.8 -4.7 10 +26 +26 жарко 1019.2 1014.4 +21.7 +29.8
12 21.10 ЮВ 6 30 км 1/0
[Cs]
+36.8 -6.1 6 +32 +39 жарко 1014.1 1009.5 +21.7 +36.8

 

Местоположение метеостанции Vredendal (Южная Африка): широта -31.66 долгота 18.50 высота над уровнем моря 33 м.

В архиве по умолчанию представлена погода в Vredendal за последнюю неделю. Архивные данные за месяц целиком и за предыдущие месяцы, начиная с января 2011 года, Вы можете получить, выбрав интересующий диапазон дат из раскрывающегося списка и нажав кнопку "Ввод!".


*Определитесь, кто Вы:
робот инопланетянин человек

Внимание! Время в таблицах - всемирное. Для получения местного времени необходимо прибавить поправку, которая в Vredendal равна 2 ч.

Смотрите также архив погоды в соседних городах и на ближайших метеорологических станциях:

Погода в Lamberts Bay (Южная Африка) (44 км)
Погода в Nieuwoudtville (Южная Африка) (66 км)
Погода в Clanwilliam (Южная Африка) (69 км)
Погода в Calvinia (Южная Африка) (122 км)
Погода в Cape Columbine (Южная Африка) (144 км)
Погода в Langebaanweg (Южная Африка) (148 км)
Погода в Langebaan (Южная Африка) (164 км)
Погода в Excelsior Ceres (Южная Африка) (169 км)
Погода в Geelbek (Южная Африка) (175 км)
Погода в Porterville (Южная Африка) (189 км)

Пояснения к столбцам:

Ветер - указаны скорость ветра в м/с - средняя за 10 мин, порывы в срок и между сроками (в фигурных скобках) и направление, откуда дует ветер: С - северный, СВ - северо-восточный, В - восточный, ЮВ - юго-восточный, Ю - южный, ЮЗ - юго-западный, З - западный, СЗ - северо-западный.
Видимость - горизонтальная дальность видимости в метрах или километрах. При видимости от 1 до 10 км при отсутствии осадков обычно наблюдается дымка, при ухудшении видимости до 1 км и менее - туман. В сухую погоду видимость может ухудшаться дымом, пылью или мглою.
Явления - указаны атмосферные явления, наблюдавшиеся в срок или в последний час перед сроком; фигурными скобками обозначены явления, наблюдавшиеся между сроками (за 1-3 часа до срока); квадратными скобками обозначены град или гололедные отложения с указанием их диаметра в мм.
Облачность - указаны через наклонную черту общая и нижняя облачность в баллах и высота нижней границы облаков в метрах; квадратными скобками обозначены формы облаков: Ci - перистые, Cs - перисто-слоистые, Cc - перисто-кучевые, Ac - высококучевые, As - высокослоистые, Sc - слоисто-кучевые, Ns - слоисто-дождевые, Cu - кучевые, Cb - кучево-дождевые. Подробнее классификацию облаков см. в Атласе облаков (PDF).
T - Температура воздуха - температура, измеренная на высоте 2 м над землей.
Td - Температура точки росы - температура, при понижении до которой содержащийся в воздухе водяной пар достигнет насыщения.
f - Относительная влажность воздуха - влажноcть воздуха, измеренная на высоте 2 м над землей.
Te - Эффективная температура - температура, которую ощущает одетый по сезону человек в тени. Характеристика душности погоды. При расчете учитывается влияние влажности воздуха и скорости ветра на теплоощущения человека.
Tes - Эффективная температура на солнце - температура, которую ощущает человек, с поправкой на солнечный нагрев. Характеристика знойности погоды. Зависит от высоты солнца над горизонтом, облачности и скорости ветра. Ночью, в пасмурную погоду, а также при ветре 12 м/с и более поправка равна нулю.
P - Атмосферное давление - приведенное к уровню моря атмосферное давление.
Po - Атмосферное давление - измеренное на уровне метеостанции атмосферное давление.
Tmin - Минимальная температура - минимум температуры воздуха на высоте 2 м над землей.
Tmax - Максимальная температура - максимум температуры воздуха на высоте 2 м над землей.
R - Количество осадков - Количество выпавших осадков за период времени, мм. При наведении курсора мыши на число - период времени, за который выпало указанное количество осадков.
R24 - Количество осадков - Количество выпавших осадков за 24 часа, мм.
S - Снежный покров - Высота снежного покрова, см. При наведении курсора мыши на число - состояние снежного покрова и степень покрытия местности в баллах.